Weather History for Elko, NV

Change the Weather History Date:

Wednesday, May 1, 2013

  Actual Average Record
Temperature  
Mean Temperature 39 °F 49 °F  
Max Temperature 57 °F 64 °F 88 °F (1981)
Min Temperature 21 °F 34 °F 13 °F (1913)
Degree Days  
Heating Degree Days 26 16  
Month to date heating degree days 26 16  
Since 1 July heating degree days 6426 6587  
Cooling Degree Days 0 0  
Month to date cooling degree days 0 0  
Year to date cooling degree days 0 0  
Moisture  
Dew Point 5 °F    
Average Humidity 33    
Maximum Humidity 55    
Minimum Humidity 10    
Precipitation  
Precipitation 0.00 in 0.03 in 0.29 in (2002)
Month to date precipitation 0.00 0.03  
Year to date precipitation 2.20 3.96  
Snow  
Snow 0.00 in 0.00 in 1.50 in (2002)
Month to date snowfall 0.0 0.0  
Since 1 July snowfall 42.2 40.8  
Snow Depth 0.00 in    
Sea Level Pressure  
Sea Level Pressure 30.40 in    
Wind  
Wind Speed 6 mph (ENE)    
Max Wind Speed 15 mph    
Max Gust Speed 22 mph    
Visibility 10 miles    
Events      
T = Trace of Precipitation, MM = Missing Value Source: NWS Daily Summary

Daily Weather History Graph

Daily Weather History Graph

Search for Another Location

Airport:

Trip Planner

Search our weather history database for the weather conditions in past years. The results will help you decide how hot, cold, wet, or windy it might be!

Date:

Astronomy

May. 01, 2013 Rise Set
Actual Time 5:41 AM PDT 7:39 PM PDT
Civil Twilight 5:11 AM PDT 8:09 PM PDT
Nautical Twilight 4:35 AM PDT 8:46 PM PDT
Astronomical Twilight 3:55 AM PDT 9:25 PM PDT
Moon 12:52 AM PDT (5/1) 11:24 AM PDT (5/1)
Length of Visible Light 14h 58m
Length of Day
13h 58m
Waning Gibbous, 58% of the Moon is Illuminated
May 1
Waning Gibbous
May 2
Last Quarter
May 9
New
May 17
First Quarter
May 24
Full

Hourly Weather History & Observations

Time (PDT) Temp. Windchill Dew Point Humidity Pressure Visibility Wind Dir Wind Speed Gust Speed Precip Events Conditions
12:56 AM 34.0 °F - 5.0 °F 30% 30.20 in 10.0 mi Calm Calm - N/A   Clear
1:56 AM 33.1 °F 24.9 °F 10.0 °F 38% 30.24 in 10.0 mi ESE 10.4 mph - N/A   Clear
2:56 AM 30.0 °F 23.2 °F 9.0 °F 41% 30.26 in 10.0 mi ENE 6.9 mph - N/A   Clear
3:56 AM 28.9 °F 21.9 °F 10.0 °F 45% 30.30 in 10.0 mi ENE 6.9 mph - N/A   Clear
4:56 AM 28.0 °F 24.2 °F 10.9 °F 49% 30.32 in 10.0 mi East 3.5 mph - N/A   Clear
5:56 AM 23.0 °F - 8.1 °F 53% 30.36 in 10.0 mi Calm Calm - N/A   Clear
6:56 AM 25.0 °F - 10.9 °F 55% 30.39 in 10.0 mi Calm Calm - N/A   Clear
7:56 AM 33.1 °F - 10.9 °F 40% 30.40 in 10.0 mi Calm Calm - N/A   Clear
8:56 AM 37.9 °F 32.7 °F 8.1 °F 29% 30.40 in 10.0 mi East 6.9 mph - N/A   Clear
9:56 AM 39.9 °F - 8.1 °F 27% 30.41 in 10.0 mi Calm Calm - N/A   Clear
10:56 AM 46.0 °F 41.9 °F 6.1 °F 20% 30.40 in 10.0 mi East 8.1 mph - N/A   Clear
11:56 AM 46.9 °F - 1.9 °F 16% 30.41 in 10.0 mi Variable 4.6 mph - N/A   Clear
12:56 PM 51.1 °F - 1.9 °F 13% 30.41 in 10.0 mi East 6.9 mph 16.1 mph N/A   Clear
1:56 PM 51.1 °F - 1.0 °F 13% 30.42 in 10.0 mi Variable 4.6 mph - N/A   Clear
2:56 PM 55.0 °F - -0.9 °F 10% 30.40 in 10.0 mi Variable 6.9 mph - N/A   Clear
4:56 PM 55.9 °F - -0.0 °F 10% 30.41 in 10.0 mi NNE 5.8 mph 17.3 mph N/A   Clear
5:56 PM 55.0 °F - 1.9 °F 12% 30.43 in 10.0 mi ESE 6.9 mph - N/A   Clear
6:56 PM 54.0 °F - 1.9 °F 12% 30.44 in 10.0 mi ESE 6.9 mph - N/A   Clear
7:56 PM 50.0 °F - 1.9 °F 14% 30.47 in 10.0 mi NE 6.9 mph - N/A   Clear
8:56 PM 46.9 °F - -0.9 °F 14% 30.50 in 10.0 mi NNE 10.4 mph - N/A   Clear
9:56 PM 44.1 °F 38.1 °F -0.0 °F 16% 30.53 in 10.0 mi NNE 11.5 mph - N/A   Clear
10:56 PM 39.9 °F 33.9 °F 1.0 °F 20% 30.55 in 10.0 mi ENE 9.2 mph - N/A   Clear
11:56 PM 39.0 °F 32.8 °F 1.0 °F 20% 30.56 in 10.0 mi NE 9.2 mph - N/A   Clear